W4RAH-1 Weather Reports


time (UTC)temp
C
wind
direction
speed
KPH
gust
KPH
rain 1hr
cm
rain 24hr
cm
rain mn
cm
humidity
%
barometer
mb
20260506004829 22 215 12.9 20.9 0.00 0.00 0.00 38 1009.7
20260506004336 22 205 11.3 29.0 0.00 0.00 0.00 37 1009.7
20260506003822 22 223 9.7 30.6 0.00 0.00 0.00 38 1009.6
20260506003330 22 213 12.9 24.1 0.00 0.00 0.00 38 1009.5
20260506002836 22 206 9.7 25.7 0.00 0.00 0.00 38 1009.6
20260506002306 23 219 9.7 22.5 0.00 0.00 0.00 38 1009.4
20260506001320 23 213 6.4 17.7 0.00 0.00 0.00 36 1009.3
20260506000826 23 227 6.4 25.7 0.00 0.00 0.00 37 1009.2
20260506000334 23 201 6.4 25.7 0.00 0.00 0.00 35 1009.2
20260505235820 23 198 9.7 22.5 0.00 0.00 0.00 36 1009.3
20260505235327 23 215 4.8 22.5 0.00 0.00 0.00 36 1009.3
20260505234834 23 225 9.7 25.7 0.00 0.00 0.00 36 1009.2
20260505234321 23 200 11.3 29.0 0.00 0.00 0.00 36 1009.1
20260505233829 24 232 8.0 30.6 0.00 0.00 0.00 35 1009.1
20260505233257 24 227 11.3 27.4 0.00 0.00 0.00 36 1009.1
20260505232333 24 222 16.1 29.0 0.00 0.00 0.00 37 1009.1
20260505231818 24 215 11.3 30.6 0.00 0.00 0.00 36 1009.1
20260505231326 25 202 14.5 32.2 0.00 0.00 0.00 36 1009.1
20260505230832 25 226 14.5 33.8 0.00 0.00 0.00 36 1009.0
20260505230320 25 217 11.3 33.8 0.00 0.00 0.00 36 1009.1
20260505225825 25 207 14.5 33.8 0.00 0.00 0.00 36 1009.1
20260505225334 25 232 9.7 35.4 0.00 0.00 0.00 38 1009.1
20260505224819 25 225 12.9 35.4 0.00 0.00 0.00 35 1009.0
20260505224332 25 207 11.3 20.9 0.00 0.00 0.00 36 1009.1
20260505223817 25 216 12.9 27.4 0.00 0.00 0.00 35 1009.1
20260505223326 25 225 12.9 37.0 0.00 0.00 0.00 35 1009.0
20260505222831 25 198 14.5 37.0 0.00 0.00 0.00 36 1009.1
20260505222319 25 205 8.0 30.6 0.00 0.00 0.00 36 1009.1
20260505221826 25 200 9.7 25.7 0.00 0.00 0.00 36 1009.2
20260505221252 25 197 16.1 35.4 0.00 0.00 0.00 35 1009.2
20260505220327 26 209 19.3 33.8 0.00 0.00 0.00 34 1009.2
20260505215758 26 173 11.3 30.6 0.00 0.00 0.00 35 1009.1
20260505214751 26 211 8.0 24.1 0.00 0.00 0.00 35 1009.1
20260505213824 26 207 16.1 37.0 0.00 0.00 0.00 34 1009.1
20260505213332 26 221 17.7 37.0 0.00 0.00 0.00 36 1009.1
20260505212818 26 212 11.3 29.0 0.00 0.00 0.00 35 1009.0
20260505212325 26 216 12.9 25.7 0.00 0.00 0.00 36 1009.0
20260505211752 26 198 11.3 35.4 0.00 0.00 0.00 35 1009.0
20260505210810 26 201 14.5 35.4 0.00 0.00 0.00 34 1009.0
20260505205822 26 224 14.5 38.6 0.00 0.00 0.00 34 1009.1
20260505205331 27 192 16.1 33.8 0.00 0.00 0.00 35 1009.1
20260505204836 27 232 11.3 29.0 0.00 0.00 0.00 37 1009.1
20260505204325 27 188 16.1 29.0 0.00 0.00 0.00 35 1009.1
20260505203751 27 227 19.3 40.2 0.00 0.00 0.00 35 1008.9
20260505203318 27 227 19.3 40.2 0.00 0.00 0.00 35 1008.9
20260505202804 27 200 12.9 41.8 0.00 0.00 0.00 35 1009.0
20260505201820 27 222 17.7 29.0 0.00 0.00 0.00 36 1008.9
20260505201329 28 226 12.9 27.4 0.00 0.00 0.00 37 1009.0
20260505200835 28 254 12.9 35.4 0.00 0.00 0.00 38 1009.0
20260505200301 28 194 11.3 32.2 0.00 0.00 0.00 35 1009.0
20260505195336 28 201 20.9 30.6 0.00 0.00 0.00 37 1009.0
20260505194822 28 217 6.4 25.7 0.00 0.00 0.00 39 1009.1
20260505194329 27 223 12.9 25.7 0.00 0.00 0.00 37 1009.1
20260505193834 27 180 11.3 35.4 0.00 0.00 0.00 36 1009.2
20260505193326 27 198 19.3 35.4 0.00 0.00 0.00 38 1009.2
20260505192832 27 201 9.7 30.6 0.00 0.00 0.00 36 1009.1
20260505192319 28 199 12.9 30.6 0.00 0.00 0.00 36 1009.2
20260505191826 28 216 12.9 30.6 0.00 0.00 0.00 40 1009.4
20260505191333 28 200 11.3 30.6 0.00 0.00 0.00 36 1009.4
20260505190800 27 219 6.4 29.0 0.00 0.00 0.00 38 1009.6
20260505190327 27 219 6.4 29.0 0.00 0.00 0.00 38 1009.6
20260505185832 28 254 8.0 29.0 0.00 0.00 0.00 38 1009.7
20260505185321 28 183 11.3 24.1 0.00 0.00 0.00 40 1009.8
20260505184826 28 215 9.7 24.1 0.00 0.00 0.00 37 1010.0
20260505184318 28 204 11.3 22.5 0.00 0.00 0.00 43 1010.0
20260505183805 28 207 14.5 27.4 0.00 0.00 0.00 43 1010.1
20260505182816 28 202 8.0 30.6 0.00 0.00 0.00 39 1010.2
20260505182325 28 200 9.7 30.6 0.00 0.00 0.00 37 1010.3
20260505181832 28 210 8.0 25.7 0.00 0.00 0.00 40 1010.2
20260505181258 27 255 4.8 27.4 0.00 0.00 0.00 37 1010.4
20260505180332 27 257 9.7 30.6 0.00 0.00 0.00 42 1010.5
20260505175822 26 223 12.9 30.6 0.00 0.00 0.00 39 1010.6
20260505175330 26 197 11.3 27.4 0.00 0.00 0.00 42 1010.7
20260505174836 26 202 16.1 27.4 0.00 0.00 0.00 41 1010.7
20260505174322 27 216 6.4 20.9 0.00 0.00 0.00 38 1010.8
20260505173828 27 209 3.2 20.9 0.00 0.00 0.00 36 1010.8
20260505173336 28 201 6.4 22.5 0.00 0.00 0.00 42 1010.9
20260505172803 28 205 9.7 29.0 0.00 0.00 0.00 39 1010.9
20260505171756 27 249 11.3 24.1 0.00 0.00 0.00 39 1011.0
20260505170833 27 267 8.0 25.7 0.00 0.00 0.00 39 1011.1
20260505170320 27 219 14.5 25.7 0.00 0.00 0.00 46 1011.1
20260505165827 27 228 14.5 24.1 0.00 0.00 0.00 39 1011.3
20260505165334 27 204 3.2 19.3 0.00 0.00 0.00 39 1011.3
20260505164820 27 234 9.7 24.1 0.00 0.00 0.00 41 1011.4
20260505164328 27 213 3.2 25.7 0.00 0.00 0.00 42 1011.5
20260505163834 27 209 6.4 25.7 0.00 0.00 0.00 44 1011.5
20260505163321 27 223 6.4 24.1 0.00 0.00 0.00 43 1011.6
20260505162752 27 205 9.7 22.5 0.00 0.00 0.00 41 1011.7
20260505161824 27 202 8.0 22.5 0.00 0.00 0.00 44 1011.7
20260505161333 26 215 6.4 20.9 0.00 0.00 0.00 42 1011.9
20260505160819 26 206 8.0 27.4 0.00 0.00 0.00 45 1011.9
20260505160305 26 111 9.7 22.5 0.00 0.00 0.00 42 1012.0
20260505153337 25 254 11.3 24.1 0.00 0.00 0.00 44 1012.2
20260505152821 25 242 11.3 29.0 0.00 0.00 0.00 46 1012.2
20260505152330 25 230 12.9 30.6 0.00 0.00 0.00 47 1012.2
20260505151836 24 208 12.9 30.6 0.00 0.00 0.00 47 1012.2
20260505151323 24 194 9.7 25.7 0.00 0.00 0.00 48 1012.2
20260505150831 24 251 14.5 20.9 0.00 0.00 0.00 47 1012.1
20260505150257 24 226 8.0 19.3 0.00 0.00 0.00 51 1012.1
20260505140305 22 219 4.8 16.1 0.00 0.00 0.00 54 1012.1
20260505130307 18 219 0.0 0.0 0.00 0.00 0.00 67 1012.6
20260505124829 17 227 0.0 0.0 0.00 0.00 0.00 72 1012.7
20260505124256 16 269 0.0 0.0 0.00 0.00 0.00 75 1012.8
20260505123252 15 204 0.0 0.0 0.00 0.00 0.00 78 1012.9
20260505122328 15 213 0.0 0.0 0.00 0.00 0.00 81 1012.9
20260505121814 14 210 0.0 0.0 0.00 0.00 0.00 84 1012.9
20260505120803 13 214 0.0 0.0 0.00 0.00 0.00 86 1012.9
20260505115836 13 221 0.0 0.0 0.00 0.00 0.00 86 1012.8
20260505115324 12 192 0.0 0.0 0.00 0.00 0.00 87 1012.8
20260505114754 12 221 0.0 0.0 0.00 0.00 0.00 87 1012.7
20260505113827 12 227 0.0 0.0 0.00 0.00 0.00 87 1012.6
20260505113336 12 218 0.0 0.0 0.00 0.00 0.00 87 1012.5
20260505112821 12 210 0.0 0.0 0.00 0.00 0.00 87 1012.5
20260505112330 12 217 0.0 0.0 0.00 0.00 0.00 87 1012.4
20260505111836 11 211 0.0 0.0 0.00 0.00 0.00 87 1012.3
20260505111301 11 221 1.6 8.0 0.00 0.00 0.00 87 1012.2
20260505110336 11 226 0.0 8.0 0.00 0.00 0.00 87 1012.1
20260505101819 11 222 0.0 8.0 0.00 0.00 0.00 84 1011.6
20260505101328 11 209 1.6 8.0 0.00 0.00 0.00 84 1011.6
20260505100817 11 215 3.2 6.4 0.00 0.00 0.00 84 1011.5
20260505100325 12 94 3.2 4.8 0.00 0.00 0.00 83 1011.5
20260505095831 12 94 0.0 4.8 0.00 0.00 0.00 83 1011.5
20260505095319 12 94 3.2 6.4 0.00 0.00 0.00 83 1011.5
20260505094805 12 108 3.2 6.4 0.00 0.00 0.00 81 1011.6
20260505093830 12 71 4.8 6.4 0.00 0.00 0.00 81 1011.6
20260505093337 12 224 0.0 6.4 0.00 0.00 0.00 80 1011.4
20260505092823 12 224 0.0 6.4 0.00 0.00 0.00 81 1011.4
20260505092331 12 224 1.6 8.0 0.00 0.00 0.00 80 1011.4
20260505091821 12 217 6.4 9.7 0.00 0.00 0.00 81 1011.3
20260505091328 12 220 3.2 8.0 0.00 0.00 0.00 80 1011.3
20260505090834 13 215 0.0 8.0 0.00 0.00 0.00 80 1011.4
20260505090322 13 219 0.0 3.2 0.00 0.00 0.00 81 1011.3
20260505085829 13 218 0.0 4.8 0.00 0.00 0.00 81 1011.3
20260505085254 12 218 0.0 0.0 0.00 0.00 0.00 81 1011.3
20260505084330 12 218 0.0 0.0 0.00 0.00 0.00 80 1011.2
20260505083756 13 218 0.0 3.2 0.00 0.00 0.00 80 1011.2
20260505082833 13 218 0.0 3.2 0.00 0.00 0.00 80 1011.2
20260505082320 13 219 0.0 0.0 0.00 0.00 0.00 80 1011.2
20260505081826 13 218 0.0 0.0 0.00 0.00 0.00 79 1011.1
20260505081334 13 219 0.0 1.6 0.00 0.00 0.00 79 1011.1
20260505080820 13 219 0.0 3.2 0.00 0.00 0.00 78 1011.2
20260505080328 13 218 0.0 1.6 0.00 0.00 0.00 78 1011.1
20260505075833 13 219 0.0 8.0 0.00 0.00 0.00 79 1011.1
20260505075321 13 200 1.6 9.7 0.00 0.00 0.00 79 1011.0
20260505074827 13 222 4.8 9.7 0.00 0.00 0.00 79 1010.9
20260505074318 13 211 1.6 9.7 0.00 0.00 0.00 79 1010.9
20260505073825 13 199 0.0 11.3 0.00 0.00 0.00 79 1010.9
20260505073332 13 223 6.4 11.3 0.00 0.00 0.00 78 1010.9
20260505072818 13 214 0.0 6.4 0.00 0.00 0.00 77 1010.9
20260505072326 13 223 3.2 6.4 0.00 0.00 0.00 77 1011.0
20260505071832 13 222 0.0 3.2 0.00 0.00 0.00 77 1010.9
20260505071320 13 222 0.0 3.2 0.00 0.00 0.00 76 1011.0
20260505070806 13 222 0.0 0.0 0.00 0.00 0.00 75 1010.9
20260505065820 14 222 0.0 0.0 0.00 0.00 0.00 75 1010.9
20260505065328 14 222 0.0 0.0 0.00 0.00 0.00 75 1010.9
20260505064834 14 222 0.0 0.0 0.00 0.00 0.00 75 1010.9
20260505064322 14 222 0.0 0.0 0.00 0.00 0.00 75 1010.9
20260505063828 14 222 0.0 8.0 0.00 0.00 0.00 74 1011.0
20260505063335 14 227 3.2 8.0 0.00 0.00 0.00 74 1011.0
20260505062821 14 223 0.0 0.0 0.00 0.00 0.00 74 1011.0
20260505062329 14 223 0.0 0.0 0.00 0.00 0.00 73 1011.0
20260505061835 14 223 0.0 0.0 0.00 0.00 0.00 73 1011.0
20260505061322 15 223 0.0 0.0 0.00 0.00 0.00 73 1011.0
20260505060829 15 223 0.0 3.2 0.00 0.00 0.00 73 1011.0
20260505060320 15 223 1.6 3.2 0.00 0.00 0.00 73 1011.0
20260505055827 15 223 0.0 0.0 0.00 0.00 0.00 73 1011.0
20260505055334 15 223 0.0 3.2 0.00 0.00 0.00 73 1011.0
20260505054820 15 223 0.0 3.2 0.00 0.00 0.00 72 1011.0
20260505054327 15 223 0.0 3.2 0.00 0.00 0.00 72 1011.0
20260505053833 15 223 1.6 3.2 0.00 0.00 0.00 72 1010.9
20260505053321 15 223 0.0 1.6 0.00 0.00 0.00 71 1011.0
20260505052827 15 223 0.0 0.0 0.00 0.00 0.00 71 1011.0
20260505052335 15 223 0.0 0.0 0.00 0.00 0.00 71 1011.0
20260505051825 15 223 0.0 0.0 0.00 0.00 0.00 70 1011.0
20260505051333 15 223 0.0 1.6 0.00 0.00 0.00 70 1011.0
20260505050818 15 223 0.0 1.6 0.00 0.00 0.00 69 1011.0
20260505050327 16 223 0.0 4.8 0.00 0.00 0.00 69 1011.0
20260505041257 16 213 11.3 17.7 0.00 0.00 0.00 67 1011.1
20260505040333 16 207 8.0 16.1 0.00 0.00 0.00 67 1010.9
20260505035817 16 220 9.7 16.1 0.00 0.00 0.00 66 1011.0
20260505035327 16 180 6.4 14.5 0.00 0.00 0.00 66 1011.0
20260505034831 16 200 0.0 17.7 0.00 0.00 0.00 66 1011.0
20260505034323 16 216 11.3 16.1 0.00 0.00 0.00 65 1010.9
20260505033830 16 202 8.0 14.5 0.00 0.00 0.00 65 1011.0
20260505033337 16 220 8.0 16.1 0.00 0.00 0.00 64 1010.8
20260505032823 16 198 0.0 16.1 0.00 0.00 0.00 64 1010.8
20260505032330 17 209 8.0 16.1 0.00 0.00 0.00 63 1010.8
20260505031835 17 216 3.2 12.9 0.00 0.00 0.00 63 1010.9
20260505031323 17 225 3.2 14.5 0.00 0.00 0.00 63 1010.9
20260505030831 17 209 3.2 12.9 0.00 0.00 0.00 63 1011.0
20260505030255 17 207 6.4 12.9 0.00 0.00 0.00 62 1011.1
20260505025335 17 219 3.2 11.3 0.00 0.00 0.00 62 1011.1
20260505024821 17 209 4.8 11.3 0.00 0.00 0.00 61 1011.1
20260505024328 17 216 0.0 11.3 0.00 0.00 0.00 61 1011.1
20260505023835 17 217 0.0 12.9 0.00 0.00 0.00 60 1011.1
20260505023322 17 209 6.4 12.9 0.00 0.00 0.00 60 1011.1
20260505022828 17 219 8.0 14.5 0.00 0.00 0.00 60 1011.0
20260505022336 18 225 0.0 16.1 0.00 0.00 0.00 60 1010.9
20260505021821 18 214 6.4 16.1 0.00 0.00 0.00 59 1010.9
20260505021329 18 202 9.7 16.1 0.00 0.00 0.00 59 1010.9
20260505020820 18 221 6.4 16.1 0.00 0.00 0.00 59 1010.9
20260505020305 18 210 11.3 16.1 0.00 0.00 0.00 58 1010.9
20260505015319 18 214 8.0 16.1 0.00 0.00 0.00 57 1010.8
20260505014806 19 216 4.8 17.7 0.00 0.00 0.00 55 1010.7
20260505013818 19 207 3.2 16.1 0.00 0.00 0.00 55 1010.6
20260505013326 19 208 9.7 19.3 0.00 0.00 0.00 55 1010.6
20260505012831 19 211 9.7 19.3 0.00 0.00 0.00 54 1010.6
20260505012320 19 214 9.7 17.7 0.00 0.00 0.00 54 1010.4
20260505011830 19 214 8.0 25.7 0.00 0.00 0.00 54 1010.4
20260505011338 19 216 6.4 25.7 0.00 0.00 0.00 53 1010.4
20260505010824 20 213 6.4 16.1 0.00 0.00 0.00 53 1010.3
20260505010332 20 207 8.0 16.1 0.00 0.00 0.00 53 1010.3
20260505005759 20 198 6.4 25.7 0.00 0.00 0.00 52 1010.0